User: anonymous   Login
Location: Unspecified
(0.0000°N, 0.0000°E)
Time: 05:29:01
(UTC+00:00)
Language:

NNS O-29 - Orbit

View from above orbital plane
View from above orbital plane
View from above satellite
View from above satellite

Ground track
Ground track

The orbit data is extracted from the following two-line orbital elements,

1 18362U 87080B   18343.92738715 +.00000035 +00000-0 +44830-4 0  9995
2 18362 090.3183 353.3739 0106626 011.7075 051.2468 13.44060037531217
Epoch (UTC): 09 December 2018 22:15:26
Eccentricity: 0.0106626
inclination: 90.3183°
perigee height: 1014 km
apogee height: 1174 km
right ascension of ascending node: 353.3739°
argument of perigee: 11.7075°
revolutions per day: 13.44060037
mean anomaly at epoch: 51.2468°
orbit number at epoch: 53121

The dashed part of the orbit path shows where the satellite is in the earth's shadow,  

DLR